When you browse on this site, cookies collect data to enhance your experience and personalize the content and advertising you see.
Visit our Privacy Policy to learn more. By continuing to use the site, you agree to this use of cookies and data.
  • en France
  • Liste des pays
  • À 7 jours
  • Température de l'eau
  • Carte météo
  • Widgets météo
  • user-avatar
    Se connecter

    Météo par heure à Paris

    Ce jour, 17 Septembre, Mardi

    Heure Température Précipitation Vent Pression Humidité
    00:00 +18°C° 0 mm 2 m/s 761 mmHg 88%
    01:00 +17°C° 0 mm 2 m/s 761 mmHg 87%
    02:00 +17°C° 0 mm 2 m/s 761 mmHg 87%
    03:00 +17°C° 0 mm 2 m/s 760 mmHg 86%
    04:00 +17°C° 0 mm 2 m/s 761 mmHg 85%
    05:00 +17°C° 0 mm 2 m/s 761 mmHg 85%
    06:00 +17°C° 0 mm 2 m/s 761 mmHg 84%
    07:00 +18°C° 0 mm 2 m/s 761 mmHg 78%
    08:00 +19°C° 0 mm 2 m/s 761 mmHg 72%
    09:00 +20°C° 0 mm 3 m/s 761 mmHg 66%
    10:00 +21°C° 0 mm 3 m/s 761 mmHg 61%
    11:00 +22°C° 0 mm 3 m/s 761 mmHg 57%
    12:00 +22°C° 0 mm 4 m/s 761 mmHg 52%
    13:00 +23°C° 0 mm 4 m/s 761 mmHg 48%
    14:00 +23°C° 0 mm 4 m/s 761 mmHg 44%
    15:00 +23°C° 0 mm 4 m/s 761 mmHg 40%
    16:00 +22°C° 0 mm 4 m/s 761 mmHg 43%
    17:00 +21°C° 0 mm 4 m/s 761 mmHg 45%
    18:00 +20°C° 0 mm 4 m/s 761 mmHg 48%
    19:00 +17°C° 0 mm 5 m/s 762 mmHg 54%
    20:00 +16°C° 0 mm 5 m/s 762 mmHg 60%
    21:00 +15°C° 0 mm 5 m/s 763 mmHg 65%
    22:00 +14°C° 0 mm 5 m/s 763 mmHg 67%
    23:00 +13°C° 0 mm 5 m/s 763 mmHg 69%

    Demain, 18 Septembre, Mercredi

    Heure Température Précipitation Vent Pression Humidité
    00:00 +12°C° 0 mm 5 m/s 763 mmHg 71%
    01:00 +12°C° 0 mm 5 m/s 763 mmHg 71%
    02:00 +10°C° 0 mm 5 m/s 763 mmHg 71%
    03:00 +11°C° 0 mm 4 m/s 763 mmHg 71%
    04:00 +9°C° 0 mm 5 m/s 763 mmHg 70%
    05:00 +9°C° 0 mm 5 m/s 764 mmHg 70%
    06:00 +9°C° 0 mm 5 m/s 764 mmHg 70%
    07:00 +10°C° 0 mm 5 m/s 764 mmHg 63%
    08:00 +13°C° 0 mm 5 m/s 764 mmHg 55%
    09:00 +14°C° 0 mm 5 m/s 765 mmHg 48%
    10:00 +16°C° 0 mm 5 m/s 764 mmHg 44%
    11:00 +17°C° 0 mm 5 m/s 764 mmHg 40%
    12:00 +19°C° 0 mm 5 m/s 764 mmHg 36%
    13:00 +20°C° 0 mm 5 m/s 764 mmHg 35%
    14:00 +20°C° 0 mm 5 m/s 764 mmHg 35%
    15:00 +21°C° 0 mm 5 m/s 764 mmHg 35%
    16:00 +19°C° 0 mm 5 m/s 764 mmHg 38%
    17:00 +17°C° 0 mm 5 m/s 764 mmHg 41%
    18:00 +17°C° 0 mm 4 m/s 764 mmHg 45%
    19:00 +15°C° 0 mm 5 m/s 764 mmHg 48%
    20:00 +15°C° 0 mm 5 m/s 765 mmHg 51%
    21:00 +14°C° 0 mm 5 m/s 765 mmHg 54%
    22:00 +13°C° 0 mm 5 m/s 765 mmHg 57%
    23:00 +12°C° 0 mm 5 m/s 765 mmHg 60%

    Après-demain, 19 Septembre, Jeudi

    Heure Température Précipitation Vent Pression Humidité
    00:00 +12°C° 0 mm 4 m/s 765 mmHg 63%
    01:00 +11°C° 0 mm 4 m/s 765 mmHg 65%
    02:00 +11°C° 0 mm 4 m/s 765 mmHg 68%
    03:00 +10°C° 0 mm 4 m/s 765 mmHg 70%
    04:00 +10°C° 0 mm 4 m/s 765 mmHg 72%
    05:00 +10°C° 0 mm 4 m/s 766 mmHg 74%
    06:00 +10°C° 0 mm 4 m/s 766 mmHg 76%
    07:00 +11°C° 0 mm 4 m/s 766 mmHg 68%
    08:00 +13°C° 0 mm 5 m/s 766 mmHg 60%
    09:00 +15°C° 0 mm 5 m/s 767 mmHg 52%
    10:00 +16°C° 0 mm 5 m/s 766 mmHg 48%
    11:00 +17°C° 0 mm 5 m/s 766 mmHg 44%
    12:00 +19°C° 0 mm 5 m/s 766 mmHg 40%
    13:00 +20°C° 0 mm 5 m/s 765 mmHg 38%
    14:00 +20°C° 0 mm 5 m/s 765 mmHg 37%
    15:00 +21°C° 0 mm 5 m/s 765 mmHg 35%
    16:00 +19°C° 0 mm 5 m/s 765 mmHg 38%
    17:00 +17°C° 0 mm 5 m/s 765 mmHg 42%
    18:00 +17°C° 0 mm 4 m/s 765 mmHg 45%
    19:00 +15°C° 0 mm 4 m/s 765 mmHg 48%
    20:00 +14°C° 0 mm 4 m/s 765 mmHg 50%
    21:00 +14°C° 0 mm 4 m/s 766 mmHg 53%
    22:00 +13°C° 0 mm 4 m/s 765 mmHg 54%
    23:00 +12°C° 0 mm 4 m/s 765 mmHg 55%

    20 Septembre, Vendredi

    Heure Température Précipitation Vent Pression Humidité
    00:00 +12°C° 0 mm 4 m/s 765 mmHg 56%
    01:00 +11°C° 0 mm 4 m/s 765 mmHg 56%
    02:00 +11°C° 0 mm 4 m/s 765 mmHg 56%
    03:00 +10°C° 0 mm 4 m/s 764 mmHg 56%
    04:00 +10°C° 0 mm 4 m/s 764 mmHg 57%
    05:00 +10°C° 0 mm 4 m/s 764 mmHg 57%
    06:00 +10°C° 0 mm 4 m/s 763 mmHg 57%
    07:00 +12°C° 0 mm 4 m/s 763 mmHg 50%
    08:00 +14°C° 0 mm 5 m/s 764 mmHg 44%
    09:00 +16°C° 0 mm 5 m/s 764 mmHg 37%
    10:00 +17°C° 0 mm 5 m/s 763 mmHg 33%
    11:00 +20°C° 0 mm 5 m/s 762 mmHg 29%
    12:00 +22°C° 0 mm 5 m/s 762 mmHg 25%
    13:00 +22°C° 0 mm 5 m/s 761 mmHg 25%
    14:00 +23°C° 0 mm 5 m/s 760 mmHg 24%
    15:00 +25°C° 0 mm 5 m/s 760 mmHg 23%
    16:00 +22°C° 0 mm 5 m/s 760 mmHg 26%
    17:00 +21°C° 0 mm 4 m/s 759 mmHg 29%
    18:00 +19°C° 0 mm 4 m/s 759 mmHg 33%
    19:00 +19°C° 0 mm 4 m/s 759 mmHg 35%
    20:00 +18°C° 0 mm 4 m/s 759 mmHg 37%
    21:00 +17°C° 0 mm 4 m/s 759 mmHg 39%
    22:00 +15°C° 0 mm 4 m/s 758 mmHg 41%
    23:00 +14°C° 0 mm 4 m/s 758 mmHg 44%

    21 Septembre, Samedi

    Heure Température Précipitation Vent Pression Humidité
    00:00 +14°C° 0 mm 4 m/s 758 mmHg 46%
    01:00 +13°C° 0 mm 3 m/s 757 mmHg 49%
    02:00 +13°C° 0 mm 3 m/s 757 mmHg 52%
    03:00 +12°C° 0 mm 3 m/s 757 mmHg 55%
    04:00 +12°C° 0 mm 3 m/s 756 mmHg 59%
    05:00 +13°C° 0 mm 2 m/s 756 mmHg 62%
    06:00 +13°C° 0 mm 2 m/s 756 mmHg 65%
    07:00 +15°C° 0 mm 2 m/s 756 mmHg 61%
    08:00 +18°C° 0 mm 2 m/s 756 mmHg 58%
    09:00 +20°C° 0 mm 3 m/s 756 mmHg 54%
    10:00 +22°C° 0 mm 3 m/s 755 mmHg 49%
    11:00 +26°C° 0 mm 3 m/s 755 mmHg 45%
    12:00 +28°C° 0 mm 3 m/s 754 mmHg 40%
    13:00 +29°C° 0 mm 3 m/s 754 mmHg 38%
    14:00 +29°C° 0 mm 4 m/s 753 mmHg 36%
    15:00 +30°C° 0 mm 4 m/s 753 mmHg 35%
    16:00 +28°C° 0 mm 3 m/s 753 mmHg 38%
    17:00 +27°C° 0 mm 2 m/s 753 mmHg 41%
    18:00 +26°C° 0 mm 2 m/s 753 mmHg 44%
    19:00 +25°C° 0.1 mm 2 m/s 753 mmHg 52%
    20:00 +24°C° 0.1 mm 3 m/s 753 mmHg 60%
    21:00 +22°C° 0.1 mm 4 m/s 754 mmHg 68%
    22:00 +21°C° 0.3 mm 3 m/s 754 mmHg 73%
    23:00 +21°C° 0.3 mm 3 m/s 754 mmHg 78%

    22 Septembre, Dimanche

    Heure Température Précipitation Vent Pression Humidité
    00:00 +20°C° 0.3 mm 2 m/s 754 mmHg 83%
    01:00 +20°C° 0 mm 2 m/s 754 mmHg 85%
    02:00 +20°C° 0 mm 3 m/s 754 mmHg 86%
    03:00 +19°C° 0 mm 3 m/s 754 mmHg 88%
    04:00 +19°C° 0.1 mm 3 m/s 754 mmHg 88%
    05:00 +19°C° 0.1 mm 3 m/s 754 mmHg 89%
    06:00 +19°C° 0.1 mm 3 m/s 754 mmHg 89%
    07:00 +20°C° 0.1 mm 3 m/s 755 mmHg 86%
    08:00 +20°C° 0.1 mm 3 m/s 755 mmHg 83%
    09:00 +21°C° 0.1 mm 3 m/s 756 mmHg 80%
    10:00 +22°C° 1.4 mm 4 m/s 756 mmHg 75%
    11:00 +23°C° 1.4 mm 4 m/s 756 mmHg 70%
    12:00 +25°C° 1.4 mm 5 m/s 756 mmHg 64%
    13:00 +25°C° 1 mm 4 m/s 756 mmHg 61%
    14:00 +26°C° 1 mm 4 m/s 757 mmHg 58%
    15:00 +26°C° 1 mm 4 m/s 757 mmHg 54%
    16:00 +25°C° 0.5 mm 3 m/s 757 mmHg 59%
    17:00 +24°C° 0.5 mm 3 m/s 757 mmHg 65%
    18:00 +21°C° 0.5 mm 3 m/s 758 mmHg 70%
    19:00 +21°C° 0 mm 2 m/s 758 mmHg 73%
    20:00 +21°C° 0 mm 1 m/s 759 mmHg 76%
    21:00 +20°C° 0 mm 1 m/s 760 mmHg 80%
    22:00 +19°C° 0 mm 1 m/s 760 mmHg 81%
    23:00 +19°C° 0 mm 1 m/s 760 mmHg 82%
    Voir plus